カタログに戻る

SL-3 R/B

運用中PO
NORAD 14453·ROCKET BODY·🇷🇺 Russia

打ち上げ Oct 28, 1983 から Plesetsk Cosmodrome

Loading…

次のパス (今後24時間)

TLE

最新Source: Space-Track

元期: Sep 14, 2026, 21:04 UTC

1 14453U 83109B   26257.87779368  .00000070  00000-0  23021-4 0  9994
2 14453  81.1658 307.9160 0103956  12.0301 348.3323 14.25476919228326

AllMySatでSL-3 R/Bをリアルタイム追跡

Download on the App Store